Location: Kershaw
(34.5481°N, 80.5823°W)
Time: 14:18:53
(UTC+00:00)

Transit 2A - All Passes

Search period start: 03 October 2022 00:00
Search period end: 13 October 2022 00:00
Orbit: 601 x 956 km, 66.7° (Epoch: 02 October)

Date Brightness Start Highest point End Pass type
(mag) Time Alt. Az. Time Alt. Az. Time Alt. Az.
03 Oct - 03:51:00 10° SSW 03:55:35 89° E 03:59:56 10° NNE night (unlit)
03 Oct - 12:40:02 10° N 12:44:20 31° ENE 12:49:00 10° ESE daylight
03 Oct - 14:23:14 10° NW 14:27:21 27° WSW 14:31:47 10° SSW daylight
04 Oct - 03:16:48 10° S 03:21:15 53° ESE 03:25:29 10° NE night (unlit)
04 Oct - 05:02:28 10° W 05:04:37 13° NW 05:06:45 10° NNW night (unlit)
04 Oct - 12:06:11 10° N 12:09:51 21° NE 12:13:47 10° ESE daylight
04 Oct - 13:48:26 10° NW 13:53:03 41° WSW 13:58:07 10° S daylight
05 Oct - 02:42:54 10° S 02:46:57 32° ESE 02:50:51 10° NE night (unlit)
05 Oct - 04:26:44 10° WSW 04:30:03 20° NW 04:33:19 10° N night (unlit)
05 Oct - 11:32:40 10° NNE 11:35:19 14° NE 11:38:03 10° E daylight
05 Oct - 13:13:53 10° NNW 13:18:44 66° WSW 13:24:05 10° SSE daylight
06 Oct - 02:09:27 10° SSE 02:12:42 19° ESE 02:15:52 10° ENE night (unlit)
06 Oct - 03:51:34 10° WSW 03:55:34 31° WNW 03:59:27 10° N night (unlit)
06 Oct - 12:39:29 10° NNW 12:44:23 81° ENE 12:49:47 10° SSE daylight
07 Oct - 01:36:55 10° SE 01:38:29 12° ESE 01:40:01 10° E night (unlit)
07 Oct - 03:16:45 10° SW 03:21:08 50° WNW 03:25:22 10° NNE night (unlit)
07 Oct - 12:05:14 10° NNW 12:10:00 52° ENE 12:15:13 10° SE daylight
07 Oct - 13:49:44 10° WNW 13:52:49 16° WSW 13:56:03 10° SW daylight
08 Oct - 02:42:14 10° SSW 02:46:46 85° WNW 02:51:07 10° NNE night (unlit)
08 Oct - 11:31:09 10° N 11:35:34 34° ENE 11:40:23 10° ESE daylight
08 Oct - 13:14:28 10° NW 13:18:33 25° WSW 13:22:57 10° SSW daylight
09 Oct - 02:07:59 10° SSW 02:12:25 57° ESE 02:16:41 10° NE night (unlit)
09 Oct - 03:53:59 10° WNW 03:55:50 12° NW 03:57:41 10° NNW night (unlit)
09 Oct - 10:57:13 10° N 11:01:05 23° NE 11:05:13 10° ESE visible
09 Oct - 12:39:38 10° NW 12:44:15 39° WSW 12:49:20 10° S daylight
10 Oct - 01:34:02 10° S 01:38:08 34° ESE 01:42:03 10° NE night (unlit)
10 Oct - 03:18:06 10° W 03:21:15 19° NW 03:24:23 10° N night (unlit)
10 Oct - 10:23:38 10° NNE 10:26:33 16° NE 10:29:36 10° E visible
10 Oct - 12:05:03 10° NW 12:09:56 62° WSW 12:15:20 10° SSE daylight
11 Oct - 01:00:30 10° SSE 01:03:52 21° ESE 01:07:08 10° ENE night (unlit)
11 Oct - 02:42:52 10° WSW 02:46:45 29° WNW 02:50:34 10° N night (unlit)
11 Oct - 09:51:16 10° NE 09:51:55 10° NE 09:52:35 10° ENE visible
11 Oct - 11:30:38 10° NNW 11:35:35 86° ENE 11:41:05 10° SSE daylight
12 Oct - 00:27:46 10° SE 00:29:39 12° ESE 00:31:29 10° E night (unlit)
12 Oct - 02:08:00 10° SW 02:12:18 47° WNW 02:16:30 10° NNE night (unlit)
12 Oct - 10:56:22 10° NNW 11:01:12 56° ENE 11:06:33 10° SE visible
12 Oct - 12:41:02 10° WNW 12:44:00 15° WSW 12:47:06 10° SW daylight
